www.pogodaiklimat.ru

Погода и климат >> Архив погоды >> Австралия >> Canberra


АРХИВ ПОГОДЫ в Canberra

Время (UTC), дата Ветер
(напр.,м/с)
 
Видим.   Явления Облачность Т
(С)
Тd
(С)
f
(%)
Тe
(С)
Тes
(С)
Комфортность P
(гПа)
Po
(гПа)
Тmin
(С)
Tmax
(С)
R
(мм)
R24
(мм)
S
(см)
01 11.10 ЮВ 8 н/о 10/10 1000 м
[]
+11.9 +3.4 56 +9 +9 холодно 1024.5 956.9 +6.3
02 11.10 ЮВ 7 н/о н/о +13.0 +2.6 49 +11 +11 холодно 1023.8 956.3
03 11.10 В 8 н/о н/о +13.9 +2.8 47 +12 +12 прохладно 1023.5 956.0
04 11.10 ЮВ 6 н/о 10/10 1000 м
[]
+13.4 +4.0 53 +11 +11 очень
холодно
1023.3 955.8
05 11.10 ЮВ 6 н/о н/о +13.0 +3.9 54 +11 +11 холодно 1023.2 955.7
06 11.10 В 6 н/о н/о +12.1 +4.3 59 +10 +10 очень
холодно
1023.4 955.9
07 11.10 ЮВ 7 н/о 10/10 600 м
[]
+11.5 +3.3 57 +9 +9 прохладно 1023.9 956.4
08 11.10 ЮВ 7 н/о н/о +10.9 +3.5 60 +8 +8 холодно 1024.6 957.0
09 11.10 ЮВ 5 н/о н/о +10.4 +3.2 61 +8 +8 холодно 1025.2 957.6
10 11.10 ЮВ 7 н/о 10/10 600 м
[]
+10.0 +2.8 61 +7 +7 по сезону 1025.9 958.2
11 11.10 ЮВ 6 н/о н/о +9.7 +3.0 63 +7 +7 по сезону 1026.1 958.4
12 11.10 ЮВ 5 н/о н/о +9.6 +3.1 64 +7 +7 прохладно 1026.6 958.9
13 11.10 ЮВ 3 н/о 10/10 600 м
[]
+9.4 +3.4 66 +7 +7 тепло 1026.7 959.0 +14.8
14 11.10 ЮВ 4 н/о н/о +9.1 +4.1 71 +7 +7 по сезону 1026.9 959.2
15 11.10 ЮВ 4 н/о н/о +9.0 +4.2 72 +6 +6 по сезону 1026.2 958.5
16 11.10 ЮВ 4 н/о 9/9 1000 м
[]
+8.3 +5.2 81 +5 +5 тепло 1025.9 958.2
17 11.10 ЮВ 3 н/о н/о +7.1 +5.9 92 +4 +4 по сезону 1025.7 958.0
18 11.10 Ю 3 н/о н/о +6.8 +5.6 92 +4 +4 по сезону 1025.4 957.8
19 11.10 штиль 0 н/о 10/10 600 м
[]
+6.9 +5.5 91 +6 +6 по сезону 1025.8 958.1
20 11.10 ЮВ 2 н/о н/о +7.6 +5.7 88 +6 +6 прохладно 1026.4 958.7
21 11.10 В 3 н/о н/о +9.0 +5.2 77 +7 +7 прохладно 1027.0 959.3
22 11.10 В 5 н/о 10/10 300 м
[]
+10.7 +5.7 71 +8 +8 холодно 1027.6 959.8
23 11.10 В 6 н/о н/о +11.8 +5.4 65 +9 +9 холодно 1027.7 959.9
00 12.10 В 6 н/о н/о +12.2 +6.0 66 +10 +10 холодно 1027.9 960.1
01 12.10 В 6 н/о 10/10 600 м
[]
+14.0 +5.4 56 +12 +12 прохладно 1027.4 959.6 +6.1
02 12.10 В 5 н/о н/о +14.7 +5.0 52 +13 +13 прохладно 1026.4 958.7
03 12.10 ЮВ 7 н/о н/о +14.5 +5.0 53 +13 +13 прохладно 1025.7 958.0
04 12.10 В 7 н/о 10/10 1000 м
[]
+15.7 +4.7 48 +14 +14 прохладно 1024.8 957.2
05 12.10 В 8 н/о н/о +14.0 +3.8 50 +12 +12 холодно 1024.6 957.0
06 12.10 ЮВ 7 н/о н/о +13.9 +5.0 55 +12 +12 холодно 1024.7 957.1
07 12.10 В 7 н/о 10/10 600 м
[]
+12.1 +5.7 65 +9 +9 прохладно 1025.3 957.7
08 12.10 В 5 н/о н/о +11.6 +5.3 65 +9 +9 прохладно 1025.4 957.8
09 12.10 В 4 н/о н/о +11.1 +4.6 64 +9 +9 холодно 1026.0 958.3
10 12.10 ЮВ 5 н/о 8/8 1000 м
[]
+10.4 +4.3 66 +8 +8 по сезону 1026.4 958.7
11 12.10 ЮВ 4 н/о н/о +9.2 +4.0 70 +7 +7 по сезону 1026.5 958.8
12 12.10 Ю 3 н/о н/о +6.0 +3.0 81 +3 +3 холодно 1026.2 958.5
13 12.10 Ю 3 н/о 10/10 600 м
[]
+8.0 +4.6 79 +5 +5 по сезону 1025.9 958.2 +16.9
14 12.10 В 2 н/о н/о +7.8 +5.3 84 +6 +6 по сезону 1025.9 958.2
15 12.10 ЮВ 2 н/о н/о +7.8 +6.7 93 +6 +6 по сезону 1025.7 958.0
16 12.10 ЮВ 2 7000 м в посл. час дождь 10/10 300 м
[]
+8.2 +8.1 99 +6 +6 тепло 1025.4 957.8
17 12.10 ЮВ 3 н/о н/о +8.1 +8.0 99 +5 +5 по сезону 1025.1 957.5
18 12.10 Ю 4 н/о н/о +8.2 +8.1 99 +5 +5 по сезону 1024.8 957.2
19 12.10 ЮВ 3 н/о {туман} 9/9 300 м
[]
+7.7 +7.6 99 +5 +5 по сезону 1025.1 957.5
20 12.10 ЮВ 2 н/о н/о +8.7 +8.6 99 +7 +7 по сезону 1026.0 958.3
21 12.10 ЮВ 3 н/о н/о +9.7 +9.4 98 +7 +7 прохладно 1026.4 958.7
22 12.10 ЮВ 3 н/о {туман} 10/10 300 м
[]
+10.9 +8.8 87 +9 +9 холодно 1026.7 959.0
23 12.10 В 4 н/о н/о +12.9 +8.0 72 +11 +11 прохладно 1026.4 958.7
00 13.10 В 6 н/о н/о +14.8 +7.6 62 +13 +13 прохладно 1026.0 958.3
01 13.10 СВ 6 н/о 10/10 1000 м
[]
+17.9 +6.4 47 +17 +17 по сезону 1025.0 957.4 +5.8
02 13.10 СВ 6 н/о н/о +18.4 +6.3 45 +18 +18 тепло 1024.2 956.6
03 13.10 СВ 8 н/о н/о +19.9 +5.5 39 +20 +20 тепло 1023.4 955.9
04 13.10 В 7 н/о 5/0 2000 м
[]
+19.5 +5.2 39 +20 +23 тепло 1022.8 955.3
05 13.10 В 5 н/о н/о +18.4 +5.3 42 +18 +18 по сезону 1022.1 954.7
06 13.10 В 8 н/о н/о +18.5 +4.7 40 +18 +18 по сезону 1021.9 954.5
07 13.10 В 8 н/о 4/0 2000 м
[]
+18.2 +7.0 48 +17 +18 тепло 1022.2 954.8
08 13.10 В 8 н/о н/о +15.1 +8.1 63 +13 +13 по сезону 1023.1 955.6
09 13.10 В 7 н/о н/о +13.6 +7.8 68 +11 +11 прохладно 1024.0 956.5
10 13.10 В 6 н/о н/о +12.7 +8.2 74 +10 +10 тепло 1024.8 957.2
11 13.10 В 4 н/о н/о +11.9 +8.0 77 +10 +10 по сезону 1025.3 957.7
12 13.10 В 3 н/о н/о +11.8 +8.5 80 +10 +10 по сезону 1025.7 958.0
13 13.10 В 4 н/о 9/9 300 м
[]
+11.8 +8.6 81 +10 +10 тепло 1026.1 958.4 +21.4
14 13.10 В 4 н/о н/о +12.2 +8.9 80 +10 +10 тепло 1026.0 958.3
15 13.10 В 4 н/о н/о +11.8 +8.6 81 +10 +10 по сезону 1025.7 958.0
16 13.10 ЮВ 3 н/о 10/10 600 м
[]
+11.5 +8.5 82 +10 +10 тепло 1025.5 957.9
17 13.10 ЮВ 4 н/о н/о +12.0 +8.5 79 +10 +10 тепло 1025.2 957.6
18 13.10 В 5 н/о н/о +12.0 +9.0 82 +10 +10 тепло 1025.3 957.7
19 13.10 В 4 н/о 9/9 300 м
[]
+12.1 +9.1 82 +10 +10 тепло 1025.8 958.1
20 13.10 В 5 н/о н/о +12.3 +9.1 81 +10 +10 по сезону 1026.3 958.6
21 13.10 В 4 н/о н/о +13.0 +9.3 78 +11 +11 по сезону 1026.7 959.0
22 13.10 В 6 н/о 9/9 300 м
[]
+14.3 +9.3 72 +13 +13 по сезону 1026.9 959.2
23 13.10 В 5 н/о н/о +16.0 +9.4 65 +15 +15 по сезону 1026.7 959.0
00 14.10 В 7 н/о н/о +16.6 +8.6 59 +15 +15 по сезону 1026.2 958.5
01 14.10 В 6 н/о 10/10 1000 м
[]
+17.1 +8.0 55 +16 +16 по сезону 1025.7 958.0 +11.3
02 14.10 В 6 н/о н/о +17.3 +8.4 56 +16 +16 по сезону 1025.0 957.4
03 14.10 В 6 н/о н/о +17.4 +9.1 58 +17 +17 по сезону 1024.8 957.2
04 14.10 В 6 н/о 10/10 600 м
[]
+16.0 +9.9 67 +15 +15 прохладно 1024.7 957.1
05 14.10 В 7 н/о н/о +16.6 +8.8 60 +15 +15 прохладно 1024.4 956.8
06 14.10 В 6 н/о н/о +17.2 +9.1 59 +16 +16 прохладно 1024.2 956.6
07 14.10 В 7 н/о 10/10 1000 м
[]
+16.5 +9.0 61 +15 +15 тепло 1024.7 957.1
08 14.10 В 4 н/о н/о +16.0 +9.0 63 +15 +15 по сезону 1025.1 957.5
09 14.10 В 5 н/о н/о +15.4 +8.4 63 +14 +14 по сезону 1025.7 958.0
10 14.10 В 7 н/о 9/9 1000 м
[]
+14.3 +8.9 70 +12 +12 тепло 1026.3 958.6
11 14.10 В 5 н/о н/о +14.0 +9.2 73 +12 +12 тепло 1026.8 959.1
12 14.10 В 4 н/о н/о +13.4 +8.9 74 +12 +12 по сезону 1027.0 959.3
13 14.10 В 4 н/о 10/10 600 м
[]
+13.1 +9.2 77 +11 +11 тепло 1026.7 959.0 +18.1
14 14.10 В 4 н/о н/о +12.9 +9.5 80 +11 +11 тепло 1026.3 958.6
15 14.10 ЮВ 3 н/о н/о +12.7 +9.9 83 +11 +11 тепло 1026.1 958.4
16 14.10 ЮВ 3 н/о 10/10 300 м
[]
+12.4 +10.6 89 +11 +11 тепло 1025.5 957.9
17 14.10 ЮВ 4 н/о н/о +12.5 +10.7 89 +11 +11 тепло 1025.0 957.4
18 14.10 Ю 2 н/о н/о +12.0 +11.5 97 +11 +11 тепло 1025.3 957.7
19 14.10 ЮВ 3 н/о 10/10 300 м
[]
+12.3 +11.0 92 +11 +11 тепло 1025.7 958.0
20 14.10 ЮВ 3 н/о н/о +12.8 +10.5 86 +11 +11 по сезону 1025.9 958.2
21 14.10 В 4 н/о н/о +13.6 +10.6 82 +12 +12 по сезону 1026.2 958.5
22 14.10 СВ 5 н/о 10/10 600 м
[]
+15.2 +9.6 69 +14 +14 по сезону 1026.0 958.3
23 14.10 СВ 5 н/о н/о +17.0 +9.9 63 +16 +16 по сезону 1025.9 958.2
00 15.10 СВ 7 н/о н/о +18.4 +8.7 53 +18 +18 тепло 1025.2 957.6
01 15.10 В 6 н/о 5/5 1000 м
[]
+20.5 +9.1 48 +22 +25 комфорт 1024.6 957.0 +11.9
02 15.10 СВ 8 н/о н/о +22.6 +9.0 42 +24 +24 комфорт 1023.8 956.3
03 15.10 СВ 9 н/о н/о +22.4 +9.2 43 +24 +24 комфорт 1022.8 955.3
04 15.10 СВ 9 н/о н/о +22.1 +9.3 44 +24 +24 комфорт 1021.8 954.4
05 15.10 СВ 8 н/о н/о +22.4 +9.6 44 +24 +24 комфорт 1021.5 954.1
06 15.10 СВ 8 н/о н/о +20.7 +10.8 53 +22 +22 комфорт 1021.8 954.4
07 15.10 В 10 н/о 4/0 2000 м
[]
+18.6 +11.4 63 +18 +18 тепло 1022.1 954.7
08 15.10 СВ 7 н/о н/о +17.1 +11.8 71 +16 +16 тепло 1022.3 954.9
09 15.10 СВ 5 н/о н/о +15.9 +12.5 80 +15 +15 по сезону 1023.0 955.5
10 15.10 В 5 н/о 10/0 2000 м
[]
+15.8 +12.0 78 +15 +15 тепло 1023.4 955.9
11 15.10 ЮВ 3 н/о н/о +15.4 +11.6 78 +15 +15 тепло 1023.7 956.2
12 15.10 ЮВ 3 н/о н/о +15.5 +11.3 76 +15 +15 тепло 1024.0 956.5
13 15.10 СВ 2 н/о 10/10 600 м
[]
+15.6 +10.6 72 +16 +16 тепло 1024.2 956.6 +23.8
14 15.10 В 3 н/о н/о +15.6 +10.6 72 +15 +15 тепло 1023.2 955.7
15 15.10 СВ 3 н/о н/о +15.4 +10.6 73 +15 +15 тепло 1022.2 954.8
16 15.10 В 3 н/о 10/10 600 м
[]
+15.2 +10.6 74 +15 +15 тепло 1021.8 954.4
17 15.10 СВ 3 н/о н/о +15.0 +10.8 76 +14 +14 тепло 1021.2 953.8
18 15.10 СВ 3 н/о н/о +15.0 +10.8 76 +14 +14 тепло 1021.3 953.9
19 15.10 ЮВ 2 н/о 10/10 600 м
[]
+15.0 +10.8 76 +15 +15 тепло 1021.6 954.2
20 15.10 В 3 н/о н/о +15.3 +10.9 75 +15 +15 тепло 1022.0 954.6
21 15.10 СВ 2 н/о н/о +16.2 +11.2 72 +16 +16 тепло 1022.3 954.9
22 15.10 СВ 3 н/о 9/9 600 м
[]
+17.0 +11.1 68 +17 +18 тепло 1022.4 955.0
23 15.10 В 2 н/о н/о +19.0 +10.8 59 +21 +21 комфорт 1022.3 954.9
00 16.10 СВ 3 н/о н/о +20.1 +10.8 55 +22 +22 комфорт 1021.7 954.3
01 16.10 В 2 н/о 10/10 1000 м
[]
+22.3 +10.8 48 +24 +24 комфорт 1020.7 953.4 +14.9
02 16.10 В 5 н/о н/о +23.0 +11.4 48 +25 +25 комфорт 1019.5 952.3
03 16.10 В 5 н/о н/о +23.6 +11.0 45 +25 +25 комфорт 1018.6 951.4
04 16.10 СВ 8 н/о 4/4 1500 м
[]
+25.0 +11.9 44 +27 +28 жарко 1017.7 950.6
05 16.10 СВ 8 н/о н/о +24.8 +10.7 41 +26 +26 жарко 1016.9 949.8
06 16.10 СВ 8 н/о н/о +23.1 +10.9 46 +25 +25 комфорт 1016.7 949.6
07 16.10 СВ 8 н/о н/о +22.1 +10.6 48 +24 +24 комфорт 1016.3 949.3
08 16.10 СВ 5 н/о н/о +21.1 +10.3 50 +23 +23 комфорт 1016.7 949.6
09 16.10 В 4 н/о н/о +19.3 +10.6 57 +20 +20 тепло 1017.3 950.3
10 16.10 СВ 3 н/о 10/10 600 м
[]
+18.6 +12.6 68 +19 +19 тепло 1018.5 951.3
11 16.10 СВ 5 н/о н/о +17.2 +11.9 71 +17 +17 тепло 1018.5 951.3
12 16.10 В 2 н/о н/о +16.8 +11.9 73 +17 +17 тепло 1018.9 951.7
13 16.10 В 4 н/о 10/10 600 м
[]
+15.7 +11.5 76 +15 +15 тепло 1018.4 951.2 +26.2
14 16.10 В 2 н/о н/о +15.3 +11.5 78 +15 +15 тепло 1018.3 951.1
15 16.10 штиль 0 н/о н/о +15.3 +11.9 80 +15 +15 тепло 1017.5 950.4
16 16.10 В 3 н/о 10/10 600 м
[]
+14.7 +11.1 79 +14 +14 тепло 1017.3 950.2
17 16.10 В 3 н/о н/о +14.1 +11.1 82 +13 +13 тепло 1016.7 949.6
18 16.10 ЮВ 1 н/о н/о +12.3 +9.9 85 +12 +12 тепло 1016.0 949.0
19 16.10 штиль 0 н/о 9/0
[]
+11.6 +9.7 88 +11 +11 тепло 1016.4 949.4
20 16.10 штиль 0 н/о н/о +14.1 +12.7 91 +14 +14 тепло 1016.8 949.7
21 16.10 ЮВ 1 н/о н/о +16.0 +11.8 76 +17 +17 тепло 1017.0 949.9
22 16.10 штиль 0 н/о слабый дождь 10/10 300 м
[]
+15.9 +12.1 78 +16 +16 по сезону 1017.3 950.2
23 16.10 СВ 2 н/о н/о +18.1 +12.3 69 +19 +19 тепло 1017.1 950.0
00 17.10 З 3 н/о н/о +19.0 +12.7 67 +20 +20 тепло 1016.9 949.8
01 17.10 СЗ 5 н/о 10/10 1000 м
[]
+21.0 +12.4 58 +23 +23 комфорт 1016.4 949.4 +11.7
02 17.10 СЗ 6 н/о н/о +20.8 +12.0 57 +23 +23 комфорт 1015.7 948.7
03 17.10 СЗ 6 н/о н/о +21.4 +11.4 53 +23 +23 комфорт 1014.8 947.9
04 17.10 СЗ 4 н/о 9/9 1000 м
[]
+21.8 +11.5 52 +24 +25 комфорт 1014.3 947.4
05 17.10 С 5 н/о н/о +17.0 +14.8 87 +16 +16 прохладно 1014.4 947.5
06 17.10 С 4 н/о н/о +18.4 +14.3 77 +19 +19 по сезону 1014.2 947.3
07 17.10 С 4 н/о {туман} 10/10 1500 м
[]
+18.0 +13.3 74 +18 +18 тепло 1014.6 947.7
08 17.10 С 2 н/о н/о +17.5 +13.2 76 +18 +18 тепло 1014.9 948.0
09 17.10 СВ 4 н/о н/о +16.7 +13.6 82 +16 +16 по сезону 1015.6 948.6
10 17.10 С 5 н/о в посл. час дождь со снегом {туман} 9/0
[]
+16.1 +13.4 84 +15 +15 тепло 1015.8 948.8
11 17.10 С 3 н/о н/о +16.1 +13.6 85 +16 +16 тепло 1015.9 948.9
12 17.10 С 2 н/о н/о +15.9 +13.4 85 +16 +16 тепло 1015.9 948.9
13 17.10 штиль 0 н/о 10/10 1000 м
[]
+15.5 +13.5 88 +15 +15 тепло 1015.9 948.9 +23.0
14 17.10 С 2 н/о н/о +14.1 +12.5 90 +14 +14 тепло 1015.4 948.4
15 17.10 В 2 н/о н/о +13.4 +12.9 97 +13 +13 тепло 1015.2 948.2
16 17.10 С 2 н/о 4/4 300 м
[]
+13.5 +12.4 93 +13 +13 тепло 1014.8 947.9
17 17.10 С 1 н/о н/о +11.8 +11.2 96 +12 +12 тепло 1014.6 947.7
18 17.10 СЗ 3 н/о н/о +12.5 +12.2 98 +11 +11 тепло 1015.1 948.1
19 17.10 С 4 н/о {туман} 10/10 200 м
[]
+13.9 +13.0 94 +12 +12 тепло 1015.8 948.8
20 17.10 СВ 4 н/о н/о +13.8 +12.5 92 +12 +12 тепло 1016.3 949.3
21 17.10 С 4 н/о н/о +14.0 +12.0 88 +12 +12 по сезону 1017.2 950.1
22 17.10 С 4 н/о {осадки} 10/10 300 м
[]
+15.1 +12.4 84 +14 +14 тепло 1017.6 950.5 0.8
23 17.10 С 3 н/о н/о +17.2 +11.7 70 +17 +17 тепло 1017.7 950.6

 

Местоположение метеостанции Canberra (Новый Южный Уэльс, Австралия): широта -35.30 долгота 149.20 высота над уровнем моря 580 м.

В архиве по умолчанию представлена погода в Canberra за последнюю неделю. Архивные данные за месяц целиком и за предыдущие месяцы, начиная с января 2011 года, Вы можете получить, выбрав интересующий диапазон дат из раскрывающегося списка и нажав кнопку "Ввод!".


*Определитесь, кто Вы:
робот инопланетянин человек

Внимание! Время в таблицах - всемирное. Для получения местного времени необходимо прибавить поправку, которая в Canberra равна 10 ч.

Смотрите также архив погоды в соседних городах и на ближайших метеорологических станциях:

Погода в Tuggeranong (Новый Южный Уэльс, Австралия) (16 км)
Погода в Mount Ginini (Новый Южный Уэльс, Австралия) (47 км)
Погода в Braidwood Racecourse Aws (Новый Южный Уэльс, Австралия) (55 км)
Погода в Goulburn Airport Aws (Новый Южный Уэльс, Австралия) (72 км)
Погода в Narriga Aws (Новый Южный Уэльс, Австралия) (83 км)
Погода в Cabramurra Smhea (Новый Южный Уэльс, Австралия) (102 км)
Погода в Moruya Airport (Новый Южный Уэльс, Австралия) (109 км)
Погода в Cooma Airport Aws (Новый Южный Уэльс, Австралия) (113 км)
Погода в Ulladulla Aws (Новый Южный Уэльс, Австралия) (116 км)
Погода в Nowra Ran Air Station (Новый Южный Уэльс, Австралия) (127 км)

Пояснения к столбцам:

Ветер - указаны скорость ветра в м/с - средняя за 10 мин, порывы в срок и между сроками (в фигурных скобках) и направление, откуда дует ветер: С - северный, СВ - северо-восточный, В - восточный, ЮВ - юго-восточный, Ю - южный, ЮЗ - юго-западный, З - западный, СЗ - северо-западный.
Видимость - горизонтальная дальность видимости в метрах или километрах. При видимости от 1 до 10 км при отсутствии осадков обычно наблюдается дымка, при ухудшении видимости до 1 км и менее - туман. В сухую погоду видимость может ухудшаться дымом, пылью или мглою.
Явления - указаны атмосферные явления, наблюдавшиеся в срок или в последний час перед сроком; фигурными скобками обозначены явления, наблюдавшиеся между сроками (за 1-3 часа до срока); квадратными скобками обозначены град или гололедные отложения с указанием их диаметра в мм.
Облачность - указаны через наклонную черту общая и нижняя облачность в баллах и высота нижней границы облаков в метрах; квадратными скобками обозначены формы облаков: Ci - перистые, Cs - перисто-слоистые, Cc - перисто-кучевые, Ac - высококучевые, As - высокослоистые, Sc - слоисто-кучевые, Ns - слоисто-дождевые, Cu - кучевые, Cb - кучево-дождевые. Подробнее классификацию облаков см. в Атласе облаков (PDF).
T - Температура воздуха - температура, измеренная на высоте 2 м над землей.
Td - Температура точки росы - температура, при понижении до которой содержащийся в воздухе водяной пар достигнет насыщения.
f - Относительная влажность воздуха - влажноcть воздуха, измеренная на высоте 2 м над землей.
Te - Эффективная температура - температура, которую ощущает одетый по сезону человек в тени. Характеристика душности погоды. При расчете учитывается влияние влажности воздуха и скорости ветра на теплоощущения человека.
Tes - Эффективная температура на солнце - температура, которую ощущает человек, с поправкой на солнечный нагрев. Характеристика знойности погоды. Зависит от высоты солнца над горизонтом, облачности и скорости ветра. Ночью, в пасмурную погоду, а также при ветре 12 м/с и более поправка равна нулю.
P - Атмосферное давление - приведенное к уровню моря атмосферное давление.
Po - Атмосферное давление - измеренное на уровне метеостанции атмосферное давление.
Tmin - Минимальная температура - минимум температуры воздуха на высоте 2 м над землей.
Tmax - Максимальная температура - максимум температуры воздуха на высоте 2 м над землей.
R - Количество осадков - Количество выпавших осадков за период времени, мм. При наведении курсора мыши на число - период времени, за который выпало указанное количество осадков.
R24 - Количество осадков - Количество выпавших осадков за 24 часа, мм.
S - Снежный покров - Высота снежного покрова, см. При наведении курсора мыши на число - состояние снежного покрова и степень покрытия местности в баллах.